TimeEST,TemperatureF,Dew PointF,Humidity,Sea Level PressureIn,VisibilityMPH,Wind Direction,Wind SpeedMPH,Gust SpeedMPH,PrecipitationIn,Events,Conditions,WindDirDegrees,DateUTC
12:54 AM,19.9,14.0,78,30.36,10.0,North,4.6,-,N/A,,Clear,350,2013-02-07 05:54:00
1:54 AM,19.9,12.0,71,30.37,10.0,North,4.6,-,N/A,,Clear,360,2013-02-07 06:54:00
2:54 AM,19.0,12.9,77,30.40,10.0,Calm,Calm,-,N/A,,Clear,0,2013-02-07 07:54:00
3:54 AM,18.0,12.0,78,30.41,10.0,North,4.6,-,N/A,,Clear,350,2013-02-07 08:54:00
4:54 AM,17.1,10.9,77,30.41,10.0,Calm,Calm,-,N/A,,Clear,0,2013-02-07 09:54:00
5:54 AM,18.0,10.9,74,30.44,10.0,Calm,Calm,-,N/A,,Clear,0,2013-02-07 10:54:00
6:54 AM,17.1,10.9,77,30.44,10.0,North,3.5,-,N/A,,Clear,10,2013-02-07 11:54:00
7:54 AM,18.0,10.9,74,30.46,10.0,Calm,Calm,-,N/A,,Mostly Cloudy,0,2013-02-07 12:54:00
8:54 AM,19.9,12.9,74,30.45,10.0,Calm,Calm,-,N/A,,Overcast,0,2013-02-07 13:54:00
9:54 AM,21.9,12.0,66,30.45,10.0,Calm,Calm,-,N/A,,Overcast,0,2013-02-07 14:54:00
10:54 AM,26.1,14.0,60,30.43,10.0,ENE,4.6,-,N/A,,Overcast,60,2013-02-07 15:54:00
11:54 AM,30.0,14.0,51,30.41,10.0,Variable,4.6,-,N/A,,Partly Cloudy,0,2013-02-07 16:54:00
12:54 PM,32.0,14.0,48,30.38,10.0,SE,8.1,-,N/A,,Clear,130,2013-02-07 17:54:00
1:54 PM,33.1,14.0,46,30.35,10.0,Calm,Calm,-,N/A,,Scattered Clouds,0,2013-02-07 18:54:00
2:54 PM,37.0,16.0,42,30.32,10.0,ESE,9.2,-,N/A,,Mostly Cloudy,110,2013-02-07 19:54:00
3:54 PM,36.0,15.1,43,30.30,10.0,East,12.7,18.4,N/A,,Clear,100,2013-02-07 20:54:00
4:54 PM,33.1,15.1,48,30.29,10.0,East,10.4,20.7,N/A,,Partly Cloudy,90,2013-02-07 21:54:00
5:54 PM,33.1,14.0,46,30.30,10.0,East,10.4,18.4,N/A,,Scattered Clouds,80,2013-02-07 22:54:00
6:54 PM,32.0,14.0,48,30.31,10.0,East,12.7,18.4,N/A,,Overcast,90,2013-02-07 23:54:00
7:54 PM,32.0,14.0,48,30.31,10.0,East,9.2,16.1,N/A,,Overcast,80,2013-02-08 00:54:00
8:54 PM,32.0,12.9,45,30.28,10.0,ENE,9.2,19.6,N/A,,Overcast,60,2013-02-08 01:54:00
9:54 PM,32.0,12.9,45,30.27,10.0,East,15.0,20.7,N/A,,Mostly Cloudy,90,2013-02-08 02:54:00
10:54 PM,32.0,16.0,52,30.25,10.0,East,11.5,23.0,N/A,,Overcast,80,2013-02-08 03:54:00
11:54 PM,30.9,19.0,61,30.23,10.0,East,15.0,21.9,N/A,,Overcast,80,2013-02-08 04:54:00